Weather History for Ardmore, OK

Change the Weather History Date:

Wednesday, September 21, 2011

  Actual Average Record
Temperature  
Mean Temperature 74 °F -  
Max Temperature 89 °F 81 °F 95 °F (1998)
Min Temperature 59 °F 60 °F 53 °F (1999)
Cooling Degree Days 9    
Growing Degree Days 24 (Base 50)    
Moisture  
Dew Point 55 °F    
Average Humidity 70    
Maximum Humidity 94    
Minimum Humidity 29    
Precipitation  
Precipitation 0.00 in - - ()
Sea Level Pressure  
Sea Level Pressure 30.00 in    
Wind  
Wind Speed 1 mph (ENE)    
Max Wind Speed 12 mph    
Max Gust Speed 16 mph    
Visibility 10 miles    
Events      
Averages and records for this station are not official NWS values.
T = Trace of Precipitation, MM = Missing Value Source: NWS Daily Summary

Daily Weather History Graph

Daily Weather History Graph

Search for Another Location

Airport:

Trip Planner

Search our weather history database for the weather conditions in past years. The results will help you decide how hot, cold, wet, or windy it might be!

Date:

Astronomy

Sep. 21, 2011 Rise Set
Actual Time 7:15 AM CDT 7:26 PM CDT
Civil Twilight 6:50 AM CDT 7:51 PM CDT
Nautical Twilight 6:20 AM CDT 8:20 PM CDT
Astronomical Twilight 5:51 AM CDT 8:50 PM CDT
Moon 12:51 AM CDT (9/21) 3:23 PM CDT (9/21)
Length of Visible Light 13h 01m
Length of Day
12h 11m
Last Quarter, 38% of the Moon is Illuminated
Sep 21
Last Quarter
Sep 27
New
Oct 3
First Quarter
Oct 11
Full
Oct 19
Last Quarter

Hourly Weather History & Observations

Time (CDT) Temp. Heat Index Dew Point Humidity Pressure Visibility Wind Dir Wind Speed Gust Speed Precip Events Conditions
12:15 AM 60.8 °F - 55.4 °F 82% 29.97 in 10.0 mi Calm Calm - N/A   Clear
12:35 AM 60.8 °F - 57.2 °F 88% 29.97 in 10.0 mi Calm Calm - N/A   Clear
12:55 AM 60.8 °F - 55.4 °F 82% 29.96 in 10.0 mi Calm Calm - N/A   Clear
1:15 AM 60.8 °F - 55.4 °F 82% 29.96 in 10.0 mi Calm Calm - N/A   Clear
1:35 AM 62.6 °F - 55.4 °F 77% 29.95 in 10.0 mi Calm Calm - N/A   Clear
1:55 AM 62.6 °F - 57.2 °F 82% 29.96 in 10.0 mi Calm Calm - N/A   Clear
2:15 AM 60.8 °F - 55.4 °F 82% 29.96 in 10.0 mi Calm Calm - N/A   Clear
2:35 AM 60.8 °F - 55.4 °F 82% 29.96 in 10.0 mi Calm Calm - N/A   Clear
2:55 AM 60.8 °F - 55.4 °F 82% 29.96 in 10.0 mi Calm Calm - N/A   Clear
3:15 AM 59.0 °F - 55.4 °F 88% 29.97 in 10.0 mi Calm Calm - N/A   Clear
3:35 AM 60.8 °F - 59.0 °F 94% 29.98 in 10.0 mi Calm Calm - N/A   Scattered Clouds
3:55 AM 62.6 °F - 57.2 °F 82% 29.98 in 10.0 mi Calm Calm - N/A   Clear
4:15 AM 60.8 °F - 57.2 °F 88% 29.98 in 10.0 mi East 4.6 mph - N/A   Clear
4:35 AM 60.8 °F - 57.2 °F 88% 29.97 in 10.0 mi ENE 4.6 mph - N/A   Clear
4:55 AM 62.6 °F - 57.2 °F 82% 29.98 in 10.0 mi Calm Calm - N/A   Clear
5:15 AM 60.8 °F - 57.2 °F 88% 29.98 in 10.0 mi Calm Calm - N/A   Clear
5:35 AM 62.6 °F - 59.0 °F 88% 29.99 in 10.0 mi Calm Calm - N/A   Clear
5:55 AM 62.6 °F - 59.0 °F 88% 30.00 in 10.0 mi Calm Calm - N/A   Clear
6:15 AM 62.6 °F - 59.0 °F 88% 30.02 in 10.0 mi Calm Calm - N/A   Clear
7:55 AM 60.8 °F - 57.2 °F 88% 30.04 in 10.0 mi Calm Calm - N/A   Clear
9:55 AM 75.2 °F - 59.0 °F 57% 30.07 in 10.0 mi NNE 4.6 mph - N/A   Clear
11:55 AM 84.2 °F 83.8 °F 59.0 °F 42% 30.07 in 10.0 mi Calm Calm - N/A   Clear
1:55 PM 89.6 °F 88.1 °F 57.2 °F 33% 30.04 in 10.0 mi East 3.5 mph - N/A   Clear
3:55 PM 89.6 °F 87.3 °F 53.6 °F 29% 29.99 in 10.0 mi East 3.5 mph - N/A   Clear
6:55 PM 86.0 °F 84.5 °F 55.4 °F 35% 29.97 in 10.0 mi East 6.9 mph - N/A   Clear
10:15 PM 73.4 °F - 50.0 °F 44% 30.05 in 10.0 mi NE 9.2 mph - N/A   Clear
10:35 PM 73.4 °F - 46.4 °F 38% 30.06 in 10.0 mi NE 11.5 mph 16.1 mph N/A   Clear
11:15 PM 71.6 °F - 46.4 °F 41% 30.07 in 10.0 mi NE 11.5 mph - N/A   Clear
11:35 PM 69.8 °F - 46.4 °F 43% 30.08 in 10.0 mi NNE 6.9 mph - N/A   Clear
11:55 PM 69.8 °F - 44.6 °F 40% 30.08 in 10.0 mi NE 9.2 mph 16.1 mph N/A   Clear